Weather History for KBAF - June, 2013

Change the Weather History Date:

Tuesday, June 18, 2013

  Actual Average Record
Temperature  
Mean Temperature 66 °F -  
Max Temperature 77 °F 77 °F 93 °F (2006)
Min Temperature 57 °F 54 °F 46 °F (2002)
Cooling Degree Days 1    
Growing Degree Days 16 (Base 50)    
Moisture  
Dew Point 60 °F    
Average Humidity 89    
Maximum Humidity 100    
Minimum Humidity 60    
Precipitation  
Precipitation 0.59 in - - ()
Sea Level Pressure  
Sea Level Pressure 29.91 in    
Wind  
Wind Speed 4 mph (NNE)    
Max Wind Speed 18 mph    
Max Gust Speed 22 mph    
Visibility 6 miles    
Events Fog , Rain    
Averages and records for this station are not official NWS values.
T = Trace of Precipitation, MM = Missing Value Source: NWS Daily Summary

Daily Weather History Graph

Daily Weather History Graph

Search for Another Location

Airport or City:

Trip Planner

Search our weather history database for the weather conditions in past years. The results will help you decide how hot, cold, wet, or windy it might be!

Date:

Astronomy

Jun. 18, 2013 Rise Set
Actual Time 5:14 AM EDT 8:29 PM EDT
Civil Twilight 4:39 AM EDT 9:04 PM EDT
Nautical Twilight 3:55 AM EDT 9:49 PM EDT
Astronomical Twilight 3:00 AM EDT 10:43 PM EDT
Moon 3:07 PM EDT (6/18) 1:25 AM EDT (6/18)
Length of Visible Light 16h 24m
Length of Day
15h 15m
Waxing Gibbous, 70% of the Moon is Illuminated
Jun 18
Waxing Gibbous
Jun 23
Full
Jun 30
Last Quarter
Jul 8
New
Jul 15
First Quarter

Hourly Weather History & Observations

Time (EDT) Temp. Dew Point Humidity Pressure Visibility Wind Dir Wind Speed Gust Speed Precip Events Conditions
12:53 AM 59.0 °F 57.9 °F 96% 29.91 in 7.0 mi SSE 3.5 mph - N/A   Clear
1:53 AM 61.0 °F 59.0 °F 93% 29.91 in 9.0 mi SSE 3.5 mph - 0.05 in Rain Light Rain
2:53 AM 62.1 °F 60.1 °F 93% 29.90 in 10.0 mi Calm Calm - 0.00 in Rain Light Rain
3:53 AM 60.1 °F 59.0 °F 96% 29.88 in 4.0 mi Calm Calm - 0.00 in   Clear
4:16 AM 59.0 °F 57.2 °F 94% 29.89 in 1.5 mi Calm Calm - N/A   Partly Cloudy
4:20 AM 57.2 °F 57.2 °F 100% 29.89 in 0.8 mi Calm Calm - N/A   Mist
4:48 AM 57.2 °F 57.2 °F 100% 29.89 in 1.0 mi South 4.6 mph - N/A   Mist
4:53 AM 57.9 °F 57.9 °F 100% 29.89 in 2.0 mi South 4.6 mph - N/A   Mostly Cloudy
4:59 AM 59.0 °F 57.2 °F 94% 29.89 in 0.8 mi South 3.5 mph - N/A   Mist
5:09 AM 59.0 °F 57.2 °F 94% 29.90 in 0.2 mi Calm Calm - N/A Fog Fog
5:17 AM 60.8 °F 59.0 °F 94% 29.90 in 0.2 mi Calm Calm - N/A Fog Fog
5:53 AM 60.1 °F 59.0 °F 96% 29.90 in 0.2 mi Calm Calm - N/A Fog Fog
6:40 AM 62.6 °F 59.0 °F 88% 29.91 in 0.2 mi Calm Calm - N/A Fog Fog
6:47 AM 62.6 °F 60.8 °F 94% 29.92 in 0.2 mi Calm Calm - N/A Fog Fog
6:53 AM 63.0 °F 60.1 °F 90% 29.92 in 0.2 mi Calm Calm - N/A Fog Fog
7:01 AM 62.6 °F 60.8 °F 94% 29.92 in 0.2 mi NNW 3.5 mph - N/A Fog Fog
7:16 AM 62.6 °F 59.0 °F 88% 29.93 in 0.2 mi North 4.6 mph - N/A Fog Fog
7:23 AM 62.6 °F 60.8 °F 94% 29.93 in 0.5 mi Calm Calm - N/A Fog Fog
7:53 AM 64.0 °F 60.1 °F 87% 29.93 in 1.0 mi Calm Calm - N/A   Overcast
7:58 AM 64.4 °F 60.8 °F 88% 29.93 in 3.0 mi North 3.5 mph - N/A   Overcast
8:53 AM 66.0 °F 61.0 °F 84% 29.94 in 10.0 mi North 3.5 mph - N/A   Overcast
9:38 AM 66.2 °F 62.6 °F 88% 29.94 in 10.0 mi North 5.8 mph - N/A   Overcast
9:53 AM 64.9 °F 62.1 °F 90% 29.94 in 10.0 mi NE 3.5 mph - N/A   Mostly Cloudy
10:07 AM 66.2 °F 62.6 °F 88% 29.93 in 10.0 mi ENE 3.5 mph - N/A   Scattered Clouds
10:53 AM 68.0 °F 62.1 °F 81% 29.93 in 10.0 mi Calm Calm - N/A   Clear
11:53 AM 73.0 °F 63.0 °F 71% 29.91 in 10.0 mi Variable 3.5 mph - N/A   Clear
12:53 PM 75.9 °F 61.0 °F 60% 29.89 in 10.0 mi NE 5.8 mph - N/A   Clear
1:53 PM 69.1 °F 61.0 °F 75% 29.88 in 10.0 mi North 11.5 mph 20.7 mph N/A   Overcast
2:29 PM 64.4 °F 62.6 °F 94% 29.89 in 1.8 mi North 18.4 mph 21.9 mph 0.12 in Rain Heavy Rain
2:45 PM 64.4 °F 62.6 °F 94% 29.89 in 1.8 mi NNE 5.8 mph - 0.32 in Rain Heavy Rain
2:51 PM 64.4 °F 62.6 °F 94% 29.88 in 3.0 mi NNE 11.5 mph - 0.32 in Rain Light Rain
2:53 PM 64.0 °F 62.1 °F 93% 29.88 in 5.0 mi NNE 10.4 mph - 0.32 in Rain Light Rain
3:30 PM 66.2 °F 62.6 °F 88% 29.89 in 10.0 mi NE 11.5 mph 20.7 mph 0.01 in   Mostly Cloudy
3:53 PM 66.0 °F 62.1 °F 87% 29.89 in 10.0 mi NNE 9.2 mph 20.7 mph 0.01 in   Mostly Cloudy
4:27 PM 64.4 °F 60.8 °F 88% 29.91 in 10.0 mi NNE 9.2 mph - N/A   Overcast
4:53 PM 64.9 °F 60.1 °F 84% 29.91 in 10.0 mi North 10.4 mph - N/A   Overcast
5:53 PM 64.0 °F 60.1 °F 87% 29.91 in 10.0 mi NNE 8.1 mph - 0.00 in   Overcast
5:58 PM 64.4 °F 60.8 °F 88% 29.91 in 10.0 mi NNE 5.8 mph - N/A   Overcast
6:49 PM 64.4 °F 60.8 °F 88% 29.92 in 10.0 mi North 6.9 mph - N/A   Overcast
6:53 PM 64.0 °F 60.1 °F 87% 29.92 in 10.0 mi North 5.8 mph - N/A   Overcast
7:09 PM 64.4 °F 60.8 °F 88% 29.92 in 10.0 mi North 8.1 mph - N/A   Overcast
7:53 PM 63.0 °F 59.0 °F 87% 29.92 in 10.0 mi NNE 6.9 mph - 0.01 in   Overcast
8:53 PM 61.0 °F 57.0 °F 87% 29.92 in 10.0 mi NNE 5.8 mph - N/A   Overcast
9:13 PM 60.8 °F 57.2 °F 88% 29.93 in 10.0 mi North 5.8 mph - N/A   Overcast
9:35 PM 60.8 °F 57.2 °F 88% 29.93 in 9.0 mi NNE 5.8 mph - 0.00 in Rain Light Rain
9:51 PM 60.8 °F 55.4 °F 82% 29.94 in 5.0 mi NE 5.8 mph - 0.03 in Rain Rain
9:53 PM 59.0 °F 55.9 °F 90% 29.94 in 5.0 mi NE 5.8 mph - 0.03 in Rain Rain
10:53 PM 57.9 °F 55.9 °F 93% 29.94 in 10.0 mi ENE 3.5 mph - 0.15 in Rain Light Rain
11:53 PM 59.0 °F 57.0 °F 93% 29.94 in 10.0 mi Calm Calm - 0.02 in Rain Light Rain